Waarnemingen

Advertentie
Mijn weer
Figari, Frankrijk (7780): temperatuur & dauwpunt: 15.09.2018 23:00:00 - 21.09.2018 23:00:00 (CEST)Figari, Frankrijk (7780): temperatuur 5cm: 15.09.2018 23:00:00 - 21.09.2018 23:00:00 (CEST)Figari, Frankrijk (7780): windsnelheid & windstoten: 15.09.2018 23:00:00 - 21.09.2018 23:00:00 (CEST)Figari, Frankrijk (7780): windrichting: 15.09.2018 23:00:00 - 21.09.2018 23:00:00 (CEST)Figari, Frankrijk (7780): luchtdruk: 15.09.2018 23:00:00 - 21.09.2018 23:00:00 (CEST)Figari, Frankrijk (7780): zicht: 15.09.2018 23:00:00 - 21.09.2018 23:00:00 (CEST)Figari, Frankrijk (7780): neerslag: 15.09.2018 23:00:00 - 21.09.2018 23:00:00 (CEST)
Datum & Tijd tt [°C] td [°C] tt 5cm [°C] ff [km/u] ff [kn] fx [km/u] fx [kn] dd ppp [hPa] vv [km] rr [mm]
21.09.2018 23:00:00 18,1 16,6 9,8 4 2 8 4 NNO 1017,1 14 0,0
21.09.2018 22:00:00 19,8 18,1 11,0 6 4 11 6 N 1016,9 18 0,0
21.09.2018 21:00:00 20,0 18,0 11,4 4 2 9 5 O 1016,6 25 0,0
21.09.2018 20:00:00 22,9 19,7 13,4 5 3 13 7 ZZW 1015,9 31 0,0
21.09.2018 19:00:00 25,9 19,5 19,3 7 4 15 8 Z 1015,3 48 0,0
21.09.2018 18:00:00 27,4 18,9 22,7 10 5 23 12 ZZW 1015,4 50 0,0
21.09.2018 17:00:00 27,3 18,3 22,3 16 8 31 17 ZW 1015,7 55 0,0
21.09.2018 16:00:00 27,8 17,9 23,4 19 10 29 16 ZW 1015,7 54 0,0
21.09.2018 15:00:00 28,5 18,0 22,8 10 6 23 13 NO 1015,4 51 0,0
21.09.2018 14:00:00 27,3 18,3 22,9 12 7 27 15 ZW 1015,9 49 0,0
21.09.2018 13:00:00 29,5 18,0 26,1 16 9 29 15 ZZW 1015,9 48 0,0
21.09.2018 12:00:00 30,3 18,4 31,8 7 4 23 12 O 1016,0 60 0,0
21.09.2018 11:00:00 28,5 17,1 28,3 8 5 22 12 NO 1015,9 43 0,0
21.09.2018 10:00:00 27,2 16,8 25,4 10 5 18 10 NO 1015,5 54 0,0
21.09.2018 09:00:00 23,0 17,0 15,2 0 0 9 5 N 1015,4 52 0,0
21.09.2018 08:00:00 17,3 15,6 8,1 3 2 12 6 N 1015,5 36 0,0
21.09.2018 07:00:00 16,5 14,9 8,0 5 3 9 5 NNW 1014,7 48 0,0
21.09.2018 06:00:00 16,1 14,6 7,5 9 5 10 6 NNO 1014,9 46 0,0
21.09.2018 05:00:00 15,1 13,8 7,5 4 2 6 3 N 1015,1 32 0,0
21.09.2018 04:00:00 15,4 13,9 7,8 3 2 9 5 ZO 1015,1 41 0,0
21.09.2018 03:00:00 16,2 14,4 8,4 5 3 8 4 NO 1015,3 40 0,0
21.09.2018 02:00:00 16,4 14,8 8,6 5 3 9 5 NNO 1015,4 41 0,0
21.09.2018 01:00:00 17,3 15,1 8,8 6 4 15 8 NNO 1015,7 59 0,0
21.09.2018 00:00:00 16,5 14,7 8,8 8 4 11 6 ONO 1016,2 51 0,0
20.09.2018 23:00:00 17,6 14,9 9,1 2 1 8 4 NNW 1016,0 55 0,0
20.09.2018 22:00:00 19,6 16,2 10,4 5 3 12 6 NNW 1016,3 60 0,0
20.09.2018 21:00:00 20,9 16,5 11,4 5 3 13 7 NNO 1016,1 56 0,0
20.09.2018 20:00:00 22,8 17,7 14,7 5 3 26 14 NNW 1015,7 57 0,0
20.09.2018 19:00:00 25,4 18,3 19,1 15 8 39 21 ONO 1015,3 50 0,0
20.09.2018 18:00:00 26,8 18,1 21,7 19 10 42 23 ONO 1015,4 56 0,0
20.09.2018 17:00:00 27,8 17,9 23,1 19 11 41 22 ONO 1015,6 60 0,0
20.09.2018 16:00:00 28,9 17,1 22,0 22 12 46 25 ONO 1015,5 60 0,0
20.09.2018 15:00:00 26,9 16,5 22,0 23 12 55 30 ONO 1016,0 47 0,0
20.09.2018 14:00:00 28,3 18,1 25,7 22 12 50 27 ONO 1016,4 35 0,0
20.09.2018 13:00:00 27,9 19,1 27,8 23 12 43 23 ONO 1016,7 44 0,0
20.09.2018 12:00:00 27,6 19,1 24,3 16 9 39 21 ONO 1017,0 45 0,0
20.09.2018 11:00:00 27,1 18,9 26,9 5 3 14 7 N 1017,3 51 0,0
20.09.2018 10:00:00 24,7 18,6 20,6 3 1 9 5 ZW 1017,6 57 0,0
20.09.2018 09:00:00 20,0 19,0 11,2 4 2 9 5 NW 1017,4 42 0,0
20.09.2018 08:00:00 16,1 15,5 7,5 3 2 8 5 NNW 1017,2 19 0,0
20.09.2018 07:00:00 14,8 14,0 7,6 4 2 8 4 N 1017,2 14 0,0
20.09.2018 06:00:00 15,0 14,2 7,9 3 2 8 4 N 1017,3 15 0,0
20.09.2018 05:00:00 15,4 14,6 8,4 5 3 7 4 NNO 1017,5 12 0,0
20.09.2018 04:00:00 15,4 14,6 7,9 3 2 8 5 W 1017,7 13 0,0
20.09.2018 03:00:00 15,5 14,7 7,9 2 1 4 2 NO 1018,0 18 0,0
20.09.2018 02:00:00 15,8 14,7 9,0 4 2 8 4 N 1018,3 16 0,0
20.09.2018 01:00:00 16,9 16,1 9,4 5 3 8 4 NNO 1018,7 16 0,0
20.09.2018 00:00:00 17,2 16,4 9,4 3 2 7 4 ZO 1018,9 24 0,0
19.09.2018 23:00:00 17,5 16,0 9,8 5 3 8 5 NNO 1019,0 25 0,0
19.09.2018 22:00:00 18,2 16,7 10,4 6 3 9 5 NNW 1018,8 39 0,0
19.09.2018 21:00:00 19,5 17,3 11,4 3 2 8 4 NO 1018,5 41 0,0
19.09.2018 20:00:00 22,1 19,3 14,8 7 4 10 5 NO 1018,1 56 0,0
19.09.2018 19:00:00 23,9 19,6 18,7 6 3 13 7 NNO 1018,1 60 0,0
19.09.2018 18:00:00 24,0 19,5 19,0 7 4 19 10 NO 1018,2 60 0,0
19.09.2018 17:00:00 24,6 19,9 19,8 11 6 27 15 ONO 1018,1 60 0,0
19.09.2018 16:00:00 25,4 20,0 20,9 14 7 37 20 ONO 1017,6 60 0,0
19.09.2018 15:00:00 27,0 19,6 22,8 15 8 31 17 NO 1017,5 53 0,0
19.09.2018 14:00:00 26,8 19,7 24,0 19 10 34 19 O 1017,9 49 0,0
19.09.2018 13:00:00 26,9 19,3 24,6 12 7 33 18 ONO 1018,3 60 0,0
19.09.2018 12:00:00 26,0 19,4 20,9 15 8 30 16 NO 1018,5 55 0,0
19.09.2018 11:00:00 24,3 19,8 19,2 13 7 24 13 O 1018,7 59 0,0
19.09.2018 10:00:00 23,7 20,6 17,2 13 7 24 13 ONO 1018,2 59 0,0
19.09.2018 09:00:00 21,0 19,5 15,0 5 3 37 20 OZO 1017,9 51 0,8
19.09.2018 08:00:00 21,4 19,1 16,2 20 11 32 17 NO 1018,1 31 0,0
19.09.2018 07:00:00 21,6 18,4 14,9 11 6 21 12 ONO 1017,6 48 0,0
19.09.2018 06:00:00 20,6 18,4 15,0 13 7 20 11 NO 1017,2 44 0,0
19.09.2018 05:00:00 21,0 18,4 14,8 12 6 18 10 NO 1017,3 43 0,0
19.09.2018 04:00:00 20,7 18,5 14,7 3 2 9 5 NNO 1017,5 43 0,0
19.09.2018 03:00:00 21,4 18,8 15,5 9 5 13 7 NNO 1017,9 31 0,0
19.09.2018 02:00:00 21,1 18,8 14,6 3 2 10 5 NO 1018,0 43 0,0
19.09.2018 01:00:00 21,1 18,8 14,5 3 2 8 4 NO 1018,2 35 0,0
19.09.2018 00:00:00 21,7 18,7 15,9 2 1 9 5 O 1018,5 44 0,0
18.09.2018 23:00:00 22,0 18,6 16,0 3 2 15 8 O 1018,6 59 0,0
18.09.2018 22:00:00 22,1 18,9 16,4 10 6 15 8 NNO 1018,4 44 0,0
18.09.2018 21:00:00 22,7 18,7 17,1 9 5 18 10 ONO 1018,0 55 0,0
18.09.2018 20:00:00 22,8 18,6 17,1 6 3 16 8 ONO 1017,5 60 0,0
18.09.2018 19:00:00 25,1 17,8 19,6 9 5 23 13 W 1017,5 49 0,0
18.09.2018 18:00:00 26,1 19,7 22,2 19 10 34 18 ZW 1017,3 45 0,0
18.09.2018 17:00:00 28,1 20,4 23,6 8 5 23 12 Z 1017,2 52 0,0
18.09.2018 16:00:00 27,7 21,0 24,7 11 6 27 14 O 1017,5 43 0,0
18.09.2018 15:00:00 27,7 20,5 25,5 16 8 31 17 ONO 1017,6 47 0,0
18.09.2018 14:00:00 28,2 19,7 24,9 16 9 33 18 NO 1017,8 45 0,0
18.09.2018 13:00:00 27,7 19,5 24,4 16 8 34 19 NO 1018,0 55 0,0
18.09.2018 12:00:00 27,7 20,5 23,7 18 10 34 18 ONO 1018,7 53 0,0
18.09.2018 11:00:00 27,1 20,9 25,8 19 11 37 20 ONO 1019,2 59 0,0
18.09.2018 10:00:00 26,4 20,3 24,2 14 8 27 15 NO 1018,9 56 0,0
18.09.2018 09:00:00 25,1 19,5 17,4 11 6 23 12 ONO 1018,3 51 0,0
18.09.2018 08:00:00 22,4 19,0 15,7 7 4 22 12 NO 1018,6 45 0,0
18.09.2018 07:00:00 21,5 18,3 15,6 14 7 24 13 ONO 1018,3 39 0,0
18.09.2018 06:00:00 21,4 18,4 15,5 14 7 28 15 ONO 1018,4 41 0,0
18.09.2018 05:00:00 21,5 18,5 15,5 15 8 25 14 ONO 1018,2 49 0,0
18.09.2018 04:00:00 21,4 18,4 15,4 13 7 28 15 ONO 1018,6 49 0,0
18.09.2018 03:00:00 21,0 18,0 15,3 14 8 28 15 ONO 1018,5 57 0,0
18.09.2018 02:00:00 20,8 18,0 15,3 12 7 29 16 ONO 1018,7 59 0,0
18.09.2018 01:00:00 21,1 18,5 15,7 15 8 26 14 NO 1018,9 60 0,0
18.09.2018 00:00:00 21,5 18,9 15,5 16 9 27 14 NO 1019,0 60 0,0
17.09.2018 23:00:00 20,9 18,5 14,9 11 6 22 12 ONO 1019,1 59 0,0
17.09.2018 22:00:00 21,3 17,9 14,7 8 5 19 10 ONO 1019,4 60 0,0
17.09.2018 21:00:00 21,8 17,6 15,7 11 6 20 11 ONO 1019,4 58 0,0
17.09.2018 20:00:00 22,1 17,9 16,4 14 8 25 13 ONO 1019,1 60 0,0
17.09.2018 19:00:00 23,6 18,9 18,6 16 9 32 17 NO 1019,0 60 0,0
17.09.2018 18:00:00 24,1 18,5 19,5 16 9 47 25 ONO 1019,1 60 0,0
17.09.2018 17:00:00 27,4 19,2 24,3 11 6 31 17 O 1018,8 36 0,0
17.09.2018 16:00:00 28,4 20,2 24,8 13 7 31 17 ZO 1018,6 58 0,0
17.09.2018 15:00:00 29,7 20,8 25,5 13 7 32 17 OZO 1019,4 48 0,0
17.09.2018 14:00:00 28,7 19,6 25,9 16 9 33 18 O 1019,6 55 0,0
17.09.2018 13:00:00 27,5 19,6 24,5 15 8 34 18 ONO 1020,5 39 0,0
17.09.2018 12:00:00 26,0 19,4 21,7 11 6 30 16 O 1021,2 53 0,0
17.09.2018 11:00:00 24,6 19,9 18,0 14 8 37 20 ONO 1021,5 43 0,0
17.09.2018 10:00:00 22,6 19,9 - 17 9 32 18 O 1021,2 23 1,0
17.09.2018 09:00:00 22,7 20,0 17,5 16 9 26 14 NO 1020,8 8 0,6
17.09.2018 08:00:00 22,7 19,5 16,5 11 6 22 12 O 1020,6 29 0,0
17.09.2018 07:00:00 22,0 19,2 16,6 10 6 22 12 O 1020,7 27 0,0
17.09.2018 06:00:00 21,9 19,3 16,1 12 7 20 11 ONO 1020,0 24 0,0
17.09.2018 05:00:00 21,3 19,0 15,7 10 5 20 11 ONO 1020,3 23 0,0
17.09.2018 04:00:00 21,2 19,1 15,1 9 5 17 9 O 1020,5 22 0,0
17.09.2018 03:00:00 21,2 19,1 14,7 11 6 18 10 ONO 1020,6 22 0,0
17.09.2018 02:00:00 20,9 19,0 13,5 8 5 16 8 ONO 1021,0 25 0,0
17.09.2018 01:00:00 19,6 18,1 12,4 9 5 10 6 NNO 1021,4 23 0,0
17.09.2018 00:00:00 20,2 18,1 12,6 4 2 11 6 NNO 1021,5 26 0,0
16.09.2018 23:00:00 21,7 19,8 14,7 7 4 14 8 ONO 1021,6 19 0,0
16.09.2018 22:00:00 21,8 19,9 14,9 8 4 15 8 ONO 1021,6 20 0,0
16.09.2018 21:00:00 22,4 19,9 14,6 8 4 11 6 NO 1021,7 28 0,0
16.09.2018 20:00:00 22,7 19,3 15,1 2 1 11 6 ZO 1021,2 39 0,0
16.09.2018 19:00:00 25,9 20,0 20,9 9 5 20 11 ZW 1020,9 47 0,0
16.09.2018 18:00:00 27,7 19,2 24,2 8 4 17 9 ZZW 1020,4 58 0,0
16.09.2018 17:00:00 28,5 18,6 25,4 5 3 21 11 ZZW 1020,8 54 0,0
16.09.2018 16:00:00 27,6 18,6 25,4 14 7 37 20 ZW 1021,0 57 0,0
16.09.2018 15:00:00 30,1 18,8 27,2 12 6 45 24 ZZW 1021,1 48 0,0
16.09.2018 14:00:00 29,9 19,3 28,8 13 7 31 17 ZO 1021,2 55 0,0
16.09.2018 13:00:00 30,0 18,8 26,8 13 7 24 13 OZO 1020,9 60 0,0
16.09.2018 12:00:00 28,8 18,6 29,9 10 6 26 14 NO 1021,7 60 0,0
16.09.2018 11:00:00 27,9 18,3 24,2 10 6 22 12 O 1021,9 51 0,0
16.09.2018 10:00:00 25,0 19,8 20,7 11 6 23 12 ONO 1021,9 43 0,0
16.09.2018 09:00:00 24,4 19,5 19,5 12 7 26 14 NO 1021,9 38 0,0
16.09.2018 08:00:00 22,9 18,7 15,3 11 6 23 12 ONO 1021,2 43 0,0
16.09.2018 07:00:00 20,7 18,3 12,6 11 6 20 11 O 1020,8 31 0,0
16.09.2018 06:00:00 19,8 17,4 9,2 9 5 16 9 ONO 1020,9 42 0,0
16.09.2018 05:00:00 16,3 15,7 8,3 8 4 16 8 O 1020,9 38 0,0
16.09.2018 04:00:00 15,0 13,4 8,5 3 1 10 5 OZO 1021,0 47 0,0
16.09.2018 03:00:00 14,8 13,5 7,9 4 2 7 4 NNW 1021,3 45 0,0
16.09.2018 02:00:00 14,7 12,7 7,3 3 1 12 6 N 1021,6 60 0,0
16.09.2018 01:00:00 14,5 12,7 7,2 3 2 9 5 O 1021,4 47 0,0
16.09.2018 00:00:00 15,2 13,4 7,5 5 3 10 5 NO 1021,4 35 0,0
15.09.2018 23:00:00 16,0 14,0 8,3 8 4 10 5 NNO 1021,1 38 0,0

tt = temperatuur
td = dauwpunt
tt 5cm = temperatuur 5cm
ff = windsnelheid
fx = windstoten
dd = windrichting
ppp = luchtdruk
vv = zicht
rr = neerslag

Weerstations in de omgeving